This is the latest recevied weather packets stored in our database for station/object K5NWZ. If no packets are shown the sender has not sent any weather packets the latest 10 day(s).
| Time | Temp. | Humidity | Pressure | Rain* | Wind** | Luminosity | Snow |
|---|---|---|---|---|---|---|---|
| 1787593178 | 32.22° C | 29% | 1030.5 hPa | 0 mm | - | 541 W/m² | - |
| 1787592878 | 32.78° C | 28% | 1030.6 hPa | 0 mm | - | 620 W/m² | - |
| 1787592573 | 32.22° C | 29% | 1030.6 hPa | 0 mm | - | 814 W/m² | - |
| 1787592272 | 31.67° C | 31% | 1030.8 hPa | 0 mm | - | 737 W/m² | - |
| 1787591968 | 31.11° C | 31% | 1030.8 hPa | 0 mm | - | 691 W/m² | - |
| 1787591663 | 32.22° C | 29% | 1030.9 hPa | 0 mm | - | 654 W/m² | - |
| 1787591359 | 31.67° C | 29% | 1030.9 hPa | 0 mm | - | 587 W/m² | - |
| 1787591054 | 31.67° C | 29% | 1030.9 hPa | 0 mm | - | 593 W/m² | - |
| 1787590750 | 31.67° C | 29% | 1030.8 hPa | 0 mm | - | 625 W/m² | - |
| 1787590444 | 31.67° C | 30% | 1031 hPa | 0 mm | - | 604 W/m² | - |
| 1787590139 | 31.11° C | 30% | 1031 hPa | 0 mm | - | 599 W/m² | - |
| 1787589835 | 31.11° C | 30% | 1031.2 hPa | 0 mm | - | 587 W/m² | - |
| 1787589531 | 30.56° C | 29% | 1031.1 hPa | 0 mm | - | 570 W/m² | - |
| 1787589226 | 30.56° C | 31% | 1031.1 hPa | 0 mm | - | 540 W/m² | - |
| 1787588921 | 30° C | 31% | 1030.9 hPa | 0 mm | - | 558 W/m² | - |
| 1787588618 | 30° C | 31% | 1030.8 hPa | 0 mm | - | 270 W/m² | - |
| 1787588312 | 30° C | 32% | 1030.9 hPa | 0 mm | - | 540 W/m² | - |
| 1787588008 | 29.44° C | 34% | 1030.9 hPa | 0 mm | - | 504 W/m² | - |
| 1787587704 | 28.89° C | 36% | 1030.6 hPa | 0 mm | - | 528 W/m² | - |
| 1787587398 | 28.89° C | 35% | 1030.5 hPa | 0 mm | - | 488 W/m² | - |
| 1787587098 | 28.33° C | 37% | 1030.9 hPa | 0 mm | - | 404 W/m² | - |
| 1787586793 | 28.89° C | 36% | 1031 hPa | 0 mm | - | 299 W/m² | - |
| 1787586488 | 28.33° C | 36% | 1030.6 hPa | 0 mm | - | 280 W/m² | - |
| 1787586183 | 28.33° C | 37% | 1030.8 hPa | 0 mm | - | 254 W/m² | - |
| 1787585880 | 28.89° C | 37% | 1030.6 hPa | 0 mm | - | 470 W/m² | - |
* Rain latest hour (hover to see other rain measurements)
** Current wind speed in m/s (hover to see current wind gust speed)